EHI
0 0 0 0 0 0 0 0 0 0 0 0 0 0 0 0 0 0 0 0 0 0 0 0 0 0 0 0 0 0 0 0 0 0 0 0 0 0 0 0 0 0 0
0 0 0 0 0 0 0 0 0 0 0 0 0 0 0 0 0 0 0 0 0 0 0 0 0 0 0 0 0 0 0 0 0 0 0 0 0 0 0 0 0 0 0
0 0 0 0 0 0 0 0 0 0 0 0 0 0 0 0 0 0 0 0 0 0 0 0 0 0 0 0 0 0 0 0 0 0 0 0 0 0 0 0 0 0 0
0 0 0 0 0 0 0 0 0 0 0 0 0 0 0 0 0 0 0 0 0 0 0 0 0 0 0 0 0 0 0 0 0 0 0 0 0 0 0 0 0 0 0
0 0 0 0 0 0 0 0 0 0 0 0 0 0 0 0 0 0 0 0 0 0 0 0 0 0 0 0 0 0 0 0 0 0 0 0 0 0 0 0 0 0 0
0 0 0 0 0 0 0 0 0 0 0 0 0 0 0 0 0 0 0 0 0 0 0 0 0 0 0 0 0 0 0 0 0 0 0 0 0 0 0 0 0 0 0
0 0 0 0 0 0 0 0 0 0 0 0 0 0 0 0 0 0 0 0 0 0 0 0 0 0 0 0 0 0 0 0 0 0 0 0 0 0 0 0 0 0 0
0 0 0 0 0 0 0 0 0 0 0 0 0 0 0 0 0 0 0 0 0 0 0 0 0 0 0 0 0 0 0 0 0 0 0 0 0 0 0 0 0 0 0
0 0 0 0 0 0 0 0 0 0 0 0 0 0 0 0 0 0 0 0 0 0 0 0 0 0 0 0 0 0 0 0 0 0 0 0 0 0 0 0 0 0 0
0 0 0 0 0 0 0 0 0 0 0 0 0 0 0 0 0 0 0 0 0 0 0 0 0 0 0 0 0 0 0 0 0 0 0 0 0 0 0 0 0 0 0
0 0 0 0 0 0 0 0 0 0 0 0 0 0 0 0 0 0 0 0 0 0 0 0 0 0 0 0 0 0 0 0 0 0 0 0 0 0 0 0 0 0 0
0 0 0 0 0 0 0 0 0 0 0 0 0 0 0 0 0 0 0 0 0 0 0 0 0 0 0 0 0 0 0 0 0 0 0 0 0 0 0 0 0 0 0
0 0 0 0 0 0 0 0 0 0 0 0 0 0 0 0 0 0 0 0 0 0 0 0 0 0 0 0 0 0 0 0 0 0 0 0 0 0 0 0 0 0 0
0 0 0 0 0 0 0 0 0 0 0 0 0 0 0 0 0 0 0 0 0 0 0 0 0 0 0 0 0 0 0 0 0 0 0 0 0 0 0 0 0 0 0
0 0 0 0 0 0 0 0 0 0 0 0 0 0 0 0 0 0 0 0 0 0 0 0 0 0 0 0 0 0 0 0 0 0 0 0 0 0 0 0 0 0 0
0 0 0 0 0 0 0 0 0 0 0 0 0 0 0 0 0 0 0 0 0 0 0 0 0 0 0 0 0 0 0 0 0 0 0 0 0 0 0 0 0 0 0
0 0 0 0 0 0 0 0 0 0 0 0 0 0 0 0 0 0 0 0 0 0 0 0 0 0 0 0 0 0 0 0 0 0 0 0 0 0 0 0 0 0 0
0 0 0 0 0 0 0 0 0 0 0 0 0 0 0 0 0 0 0 0 0 0 0 0 0 0 0 0 0 0 0 0 0 0 0 0 0 0 0 0 0 0 0
0 0 0 0 0 0 0 0 0 0 0 0 0 0 0 0 0 0 0 0 0 0 0 0 0 0 0 0 0 0 0 0 0 0 0 0 0 0 0 0 0 0 0
0 0 0 0 0 0 0 0 0 0 0 0 0 0 0 0 0 0 0 0 0 0 0 0 0 0 0 0 0 0 0 0 0 0 0 0 0 0 0 0 0 0 0
0 0 0 0 0 0 0 0 0 0 0 0 0 0 0 0 0 0 0 0 0 0 0 0 0 0 0 0 0 0 0 0 0 0 0 0 0 0 0 0 0 0 0
0 0 0 0 0 0 0 0 0 0 0 0 0 0 0 0 0 0 0 0 0 0 0 0 0 0 0 0 0 0 0 0 0 0 0 0 0 0 0 0 0 0 0
0 0 0 0 0 0 0 0 0 0 0 0 0 0 0 0 0 0 0 0 0 0 0 0 0 0 0 0 0 0 0 0 0 0 0 0 0 0 0 0 0 0 0
0 0 0 0 0 0 0 0 0 0 0 0 0 0 0 0 0 0 0 0 0 0 0 0 0 0 0 0 0 0 0 0 0 0 0 0 0 0 0 0 0 0 0
0 0 0 0 0 0 0 0 0 0 0 0 0 0 0 0 0 0 0 0 0 0 0 0 0 0 0 0 0 0 0 0 0 0 0 0 0 0 0 0 0 0 0
0 0 0 0 0 0 0 0 0 0 0 0 0 0 0 0 0 0 0 0 0 0 0 0 0 0 0 0 0 0 0 0 0 0 0 0 0 0 0 0 0 0 0
Wind_Speed
2 2 1 1 1 2 2 2 2 2 2 2 2 2 2 2 2 2 2 2 2 2 2 3 3 2 2 2 2 3 3 3 4 4 2 2 2 3 3 3 3 4 4
2 2 2 1 1 1 1 1 2 2 1 2 2 2 1 2 2 3 3 3 3 3 3 3 3 2 3 3 3 3 3 3 4 5 3 2 3 3 3 3 3 3 4
1 2 2 1 2 1 1 1 2 2 2 2 2 2 2 2 2 3 3 3 4 4 4 4 4 4 4 3 4 3 3 3 3 4 4 2 2 2 2 3 3 3 4
1 1 2 1 2 2 1 1 2 2 2 2 2 2 2 2 3 3 3 3 3 4 4 4 5 5 5 5 4 5 4 3 3 3 3 3 2 2 2 2 3 2 3
1 1 1 1 1 1 1 1 1 1 2 2 2 2 2 2 3 3 3 3 4 4 4 4 5 6 7 6 5 5 4 3 3 3 3 3 3 2 3 2 3 3 3
1 1 1 1 1 1 1 1 1 1 1 1 2 2 3 3 4 5 4 3 4 4 4 4 4 5 7 9 9 8 7 5 5 4 4 5 5 4 3 3 2 2 4
1 1 1 1 1 1 1 1 1 1 1 2 2 2 3 4 6 6 6 3 3 4 4 4 4 4 6 5 7 8 8 10 9 6 6 6 5 5 4 4 4 4 5
1 1 1 1 1 1 1 1 1 1 2 2 2 3 3 4 6 6 6 3 3 4 4 5 5 5 5 5 5 5 5 6 7 6 6 6 5 4 5 5 4 3 3
1 1 1 1 1 1 1 2 2 1 2 2 2 3 3 4 6 6 5 2 3 4 4 5 5 5 8 8 5 5 5 5 7 8 8 7 8 7 5 2 2 2 4
2 1 1 1 1 2 2 2 1 2 2 2 2 2 3 4 6 6 5 2 3 3 3 4 7 7 9 8 5 5 6 5 3 4 4 5 5 6 7 5 4 3 2
1 0 0 1 1 2 1 1 1 1 1 2 2 3 3 4 5 6 5 2 3 3 3 3 4 8 9 9 7 5 7 4 3 3 3 3 2 2 3 3 3 3 3
0 0 1 1 1 1 1 1 1 1 1 2 2 3 2 3 4 5 6 5 5 3 3 3 3 7 7 7 5 5 6 4 2 2 2 3 3 3 2 2 2 2 2
1 1 1 1 1 1 1 1 1 1 1 1 2 2 3 2 3 6 6 6 6 4 3 5 6 6 5 4 5 5 3 2 2 2 3 3 2 2 1 1 0 0 1
0 1 1 1 1 2 1 1 1 1 2 2 2 3 3 2 2 2 3 3 4 4 3 3 5 4 3 3 3 2 1 2 2 3 3 2 1 1 1 1 1 1 1
0 1 1 1 1 1 2 2 2 2 3 3 3 3 3 3 4 6 4 3 2 2 2 1 1 1 1 1 1 1 1 1 1 1 1 1 1 1 1 1 1 1 1
0 1 1 1 1 1 1 3 4 4 5 5 5 4 4 5 7 6 6 6 5 4 2 1 2 2 2 2 2 2 1 2 1 1 1 2 2 2 1 1 1 1 2
1 1 1 1 1 1 1 1 3 4 4 4 4 5 5 6 6 6 6 6 5 3 2 2 2 2 2 2 2 2 2 2 1 2 2 2 2 2 1 1 1 1 2
1 1 1 1 1 1 2 2 2 2 3 3 3 5 6 6 6 6 5 4 2 2 1 2 2 2 2 2 2 2 2 1 1 2 2 1 1 2 2 2 2 2 2
1 1 1 1 1 2 2 2 2 2 2 3 3 3 5 5 5 5 4 1 2 2 2 2 2 2 2 2 2 2 2 2 2 1 2 2 2 2 2 2 2 3 2
1 2 2 1 1 2 2 2 2 2 2 2 3 3 3 3 2 2 2 2 2 2 2 2 3 2 2 2 2 2 2 2 1 1 2 2 2 2 2 2 2 2 2
1 2 3 2 2 2 2 2 2 2 3 3 3 4 6 3 2 2 2 2 2 2 2 2 2 2 2 2 1 2 2 2 2 2 2 2 1 2 2 2 2 2 2
1 1 2 2 2 2 3 2 2 3 3 3 3 4 6 3 2 2 2 2 2 2 2 2 2 2 2 2 2 2 2 2 2 2 2 2 2 2 2 2 2 2 2
1 2 2 2 2 3 3 2 2 3 3 3 3 3 3 2 2 2 2 2 2 2 2 2 2 2 2 2 2 2 2 2 2 2 2 2 2 2 2 2 2 2 2
1 2 2 2 2 2 2 2 2 3 3 3 3 3 2 2 2 2 2 2 2 2 2 2 2 3 3 2 2 2 2 2 2 2 3 3 2 2 2 2 2 2 2
1 2 2 2 2 2 2 3 2 2 3 3 2 2 2 2 2 2 2 2 2 2 3 2 2 2 3 3 3 3 4 5 4 2 2 2 2 2 2 2 2 2 2
2 2 2 2 2 2 2 2 2 2 2 2 2 2 2 2 2 2 2 2 2 2 3 2 2 3 4 3 4 5 5 4 3 3 1 2 2 2 2 1 2 2 2
Wind_Direction
205 202 194 204 189 166 170 173 170 173 161 159 172 171 173 178 176 176 184 187 194 211 217 210 221 215 211 212 210 210 213 210 243 268 255 256 243 251 269 264 253 251 260
204 187 197 189 159 162 186 179 160 168 168 172 166 167 190 193 190 189 196 202 205 212 222 222 232 227 226 220 216 217 220 218 225 256 266 251 246 248 252 259 265 258 255
190 179 183 176 157 176 199 196 179 173 171 181 175 189 205 209 211 211 207 214 220 220 219 223 229 220 233 232 228 227 227 230 226 241 262 257 255 255 262 270 271 264 267
182 178 182 192 192 200 196 188 193 183 177 192 201 211 215 216 220 221 220 227 232 231 226 224 224 221 227 229 232 229 224 225 226 241 259 264 258 253 244 261 276 261 268
174 176 199 206 191 186 184 200 206 193 197 202 210 226 229 223 222 221 221 226 230 236 240 236 234 235 234 231 233 225 217 220 221 238 256 266 258 244 245 239 263 281 275
174 189 203 193 199 197 208 208 200 209 208 206 219 224 236 243 250 247 246 229 228 229 238 243 244 242 245 246 248 241 227 222 224 230 243 250 253 246 246 242 256 275 277
198 206 202 202 220 238 238 221 225 226 220 231 238 234 244 253 259 257 253 249 233 235 236 237 247 247 250 241 249 250 243 243 237 230 238 242 241 233 229 241 240 251 259
226 246 238 216 233 269 254 248 254 246 233 241 247 246 252 263 272 272 265 252 243 243 241 235 236 243 241 240 238 242 240 241 241 236 235 241 242 231 226 235 237 254 273
246 262 259 237 231 242 257 262 269 259 259 252 251 248 256 271 275 278 276 249 249 250 247 240 237 237 246 250 244 243 251 253 254 249 248 251 251 249 240 219 219 248 273
252 260 272 251 230 240 248 255 262 256 258 265 273 264 260 268 277 278 278 249 256 259 255 247 249 251 254 252 237 229 243 249 239 247 250 254 250 240 232 217 208 230 260
263 283 317 282 259 259 256 259 268 273 284 282 286 288 273 272 279 275 276 265 248 255 256 254 254 263 263 257 247 231 243 251 228 225 237 243 242 232 226 221 215 218 231
5 4 333 319 306 312 285 295 286 264 285 291 295 297 281 274 276 273 279 283 283 262 261 256 258 270 271 266 255 252 256 254 213 215 231 237 234 234 231 226 228 245 246
41 353 334 337 333 324 279 277 288 268 262 286 284 287 292 289 284 289 288 287 286 279 262 268 276 276 275 265 256 261 250 212 205 226 235 243 236 225 205 209 232 266 328
118 322 329 333 333 336 314 284 273 277 275 279 280 285 294 298 292 292 286 287 288 285 280 278 283 282 280 282 279 264 232 219 226 230 234 234 206 197 212 216 231 233 276
226 287 305 302 298 314 310 293 279 259 250 260 264 268 280 290 288 297 301 294 287 279 300 295 292 297 278 280 278 261 238 230 248 247 233 228 223 222 237 216 210 226 232
250 279 279 287 290 289 308 322 314 294 299 295 285 284 287 287 301 305 308 311 310 313 324 298 281 272 261 262 261 265 250 249 246 235 228 222 219 219 236 238 229 223 236
243 268 275 272 270 276 283 295 315 330 330 321 317 312 306 306 310 311 318 324 322 331 320 291 278 272 269 266 262 259 262 260 241 226 223 217 213 211 213 224 226 231 239
271 273 275 268 269 269 268 274 280 296 315 323 329 326 326 326 324 322 329 340 332 331 302 292 287 279 275 267 260 261 263 258 241 234 225 219 213 214 216 219 222 222 235
292 281 278 276 276 275 273 275 276 279 284 300 315 321 326 326 327 329 337 330 295 295 297 292 285 278 275 274 271 262 252 244 240 232 225 220 215 211 218 221 225 233 241
301 290 298 287 284 287 281 277 278 276 280 286 293 301 314 315 313 320 320 302 291 289 291 289 286 280 276 271 270 268 261 247 237 233 228 224 218 207 211 219 221 225 229
302 298 307 305 288 281 278 276 274 273 277 283 285 288 296 298 293 295 297 295 290 288 288 288 288 286 279 275 265 260 257 251 240 231 228 223 218 221 222 221 223 223 218
295 292 290 283 283 282 282 279 279 277 277 282 290 295 301 305 288 285 288 293 292 287 285 285 282 277 270 262 256 250 246 245 247 241 231 228 226 223 219 217 217 218 210
285 287 291 285 279 287 296 288 286 282 283 286 291 297 302 301 295 291 289 294 297 297 295 288 284 289 290 281 266 247 241 245 242 235 235 232 227 224 218 218 216 214 216
284 285 287 287 289 282 279 283 283 283 287 292 295 296 298 299 296 294 294 299 299 295 293 291 285 283 289 295 290 278 261 257 247 231 223 222 224 223 215 213 217 215 215
301 291 288 288 288 286 285 285 286 290 291 290 291 295 300 302 300 301 301 299 294 289 291 290 284 284 286 290 289 282 274 274 269 245 217 208 205 208 210 210 206 200 204
313 302 298 299 295 291 290 289 289 290 289 290 292 294 294 292 293 296 295 291 290 291 293 292 285 286 288 286 281 281 284 277 265 258 230 190 188 202 202 206 195 192 187